Hourly Data Report for October 01, 2014

All times are specified in Local Standard Time (LST). Add 1 hour to adjust for Daylight Saving Time where and when it is observed.

IQALUIT CLIMATE
NUNAVUT

63°44'50.000" N
68°32'40.000" W
33.50 m
2402592
71321
XFB

Download Data

Hourly Data (October 2014)
Hourly Data Report for October 1, 2014
Temp Definition
°C
Dew Point Temp Definition
°C
Rel Hum Definition
%
Wind Dir Definition
10's deg

Wind Spd Definition
km/h
Visibility Definition
km
Stn Press Definition
kPa
Hmdx Definition


Wind Chill Definition


Weather Definition


TIME
00:00 -7.2 -9.4 84 33 20   100.86   -14 LegendNANA
01:00 -8.2 -9.8 88 31 15   100.92   -15 LegendNANA
02:00 -5.8 -7.5 88 33 17   100.97   -12 LegendNANA
03:00 -6.9 -8.8 87 33 20   101.02   -14 LegendNANA
04:00 -5.6 -7.4 87 33 17   101.05   -12 LegendNANA
05:00 -4.8 -6.6 87 33 12   101.09   -10 LegendNANA
06:00 -5.3 -7.2 86 33 12   101.13   -10 LegendNANA
07:00 -5.2 -7.2 86 34 8   101.15   -9 LegendNANA
08:00 -3.7 -6.3 82 33 14   101.18   -9 LegendNANA
09:00 -2.8 -6.8 74 32 23   101.20   -9 LegendNANA
10:00 -2.6 -7.1 71 32 29   101.19   -10 LegendNANA
11:00 -2.4 -7.0 71 32 32   101.21   -10 LegendNANA
12:00 -2.3 -7.2 69 32 30   101.22   -9 LegendNANA
13:00 -2.1 -7.7 66 31 32   101.25   -9 LegendNANA
14:00 -2.1 -7.3 68 32 30   101.28   -9 LegendNANA
15:00 -2.4 -7.0 71 32 27   101.32   -9 LegendNANA
16:00 -2.6 -7.8 68 32 27   101.35   -10 LegendNANA
17:00 -3.0 -7.4 72 32 20   101.36   -9 LegendNANA
18:00 -3.2 -8.5 67 31 19   101.39   -9 LegendNANA
19:00 -3.4 -8.2 69 32 20   101.44   -10 LegendNANA
20:00 -3.6 -8.2 71 32 16   101.45   -9 LegendNANA
21:00 -3.7 -8.6 68 31 17   101.49   -9 LegendNANA
22:00 -3.9 -8.8 69 31 14   101.47   -9 LegendNANA
23:00 -4.0 -8.9 69 31 10   101.48   -8 LegendNANA

Notes on Data Quality.

Legend

  • E = Estimated
  • M = Missing
  • NA = Not Available
  • ‡ = Partner data that is not subject to review by the National Climate Archives
Date modified: